Regional Weather Roundup
Issued by NWS Goodland, KS

Home | Current Version | Previous Version | Graphics & Text | Print | Product List | Glossary On
Versions: 1 2 3 4 5 6 7 8 9 10 11 12 13 14 15 16 17 18 19 20 21 22 23 24 25 26 27 28 29 30 31 32 33 34 35 36 37 38 39 40 41 42 43 44 45 46 47 48 49 50
000
ASUS43 KGLD 300359
RWRGLD

GOODLAND FORECAST AREA HOURLY WEATHER ROUNDUP
NATIONAL WEATHER SERVICE GOODLAND KS
1000 PM MDT FRI MAY 29 2015

...OFFICIAL OBSERVATIONS...

CITY           SKY/WX    TMP DP  RH WIND       PRES   REMARKS
GOODLAND KS    CLOUDY    52  48  86 N17       30.24R
HILL CITY KS   CLOUDY    54  50  86 N16G28    30.19R
IMPERIAL NEB   CLOUDY    51  45  79 N13       30.27R
MCCOOK NEB     CLOUDY    53  46  77 N17       30.24R
AKRON CO       CLOUDY    47  44  90 N13       30.31R
BURLINGTON CO  CLOUDY    51  46  83 N17G28    30.26R
LIMON CO       CLOUDY    47  43  86 N14       30.32R
$$

...UNOFFICIAL OBSERVATIONS...

CITY           SKY/WX    TMP DP  RH WIND       PRES   REMARKS
COLBY KS       CLOUDY    54  52  94 N15G22    30.24R
GOVE KS          N/A     57  32  39 MISG        N/A
NORTON KS      CLOUDY    54  45  71 N14G23    30.19R
SHARON SPRINGS   N/A     52  48  87 MISG        N/A
KIT CARSON CO    N/A     54  47  77 MISG        N/A
$$


USA.gov is the U.S. government's official web portal to all federal, state and local government web resources and services.